053  
SXUS52 KTAE 280515  
OSOTAE  
OSOTAE  
NORTH FLORIDA/SOUTH ALABAMA/SOUTHWEST GEORGIA WEATHER ROUNDUP  
NATIONAL WEATHER SERVICE TALLAHASSEE FLORIDA  
1200 AM EST MON NOV 28 2022  
 
NOTE: "FAIR" INDICATES FEW OR NO CLOUDS BELOW 12,000 FEET WITH NO  
SIGNIFICANT WEATHER AND/OR OBSTRUCTIONS TO VISIBILITY.  
 
!FLZ017-115-028-034-025-280600   
..NORTH FLORIDA
 
 
 
CITY SKY/WX TMP DP RH WIND PRES REMARKS  
TALL INTL ARPT CLEAR 50 47 89 CALM 29.98R  
FSU LOVE BLDG N/A 55 50 82 S3 N/A  
APALACHICOLA CLEAR 53 52 96 CALM 29.98R  
PERRY NOT AVBL  
CROSS CITY CLEAR 49 49 99 CALM 30.00R  
JACKSONVILLE PTCLDY 59 55 87 SW8 29.95R  

 
 
!FLZ112-006-005-002-011-280600   
..FLORIDA PANHANDLE
 
 
 
CITY SKY/WX TMP DP RH WIND PRES REMARKS  
MARIANNA CLEAR 54 49 83 CALM 29.96S  
BONIFAY NOT AVBL  
PANAMA CITY NW FAIR 50 48 93 CALM 29.96S  
TYNDALL AFB CLEAR 63 54 74 W8 29.97R  
TYND DRONE APT FAIR 62 59 88 W6 29.94R  
DE FUNIAK SPR FAIR 55 49 82 CALM 29.97S  
EGLIN AFB CLEAR 53 44 69 W5 29.94S  
DESTIN CLEAR 71 57 61 VRB3 29.96S  
HURLBURT CLEAR 50 47 88 CALM 29.96R  
CRESTVIEW CLEAR 48 46 93 CALM 29.97S  
PENSACOLA CLEAR 60 54 80 W6 29.96R  

 
 
!ALZ063-066-280600   
..SOUTH ALABAMA
 
 
 
CITY SKY/WX TMP DP RH WIND PRES REMARKS  
DOTHAN CLEAR 55 49 80 SW6 29.98S  
OZARK CAIRNS CLEAR 49 46 88 S5 29.94S  
FT RUCKER HELI CLEAR 49 48 97 CALM 29.94S  
RUCKER HELI 3 FAIR 54 48 79 W6 29.94S  
RUCKER HELI 2 FAIR 51 50 97 CALM 29.92S  
FLORALA APT CLEAR 50 46 86 SW5 29.98R  
ANDALUSIA CLEAR 57 48 72 CALM 29.95S  
TROY CLEAR 54 47 77 SW3 29.95S  
EUFALA FAIR 57 48 72 SW6 29.94F  
MOBILE CLEAR 60 55 83 SW7 29.97R  

 
 
!GAZ120>161-280600   
..SOUTHWEST AND SOUTH CENTRAL GEORGIA
 
 
 
CITY SKY/WX TMP DP RH WIND PRES REMARKS  
THOMASVILLE FAIR 54 46 76 W3 29.97S  
BAINBRIDGE CLEAR 54 49 83 W6 29.97S  
MOODY AFB CLEAR 55 46 73 SW7 29.95R  
VALDOSTA CLEAR 53 48 83 CALM 29.97R  
MOULTRIE CLEAR 54 48 82 CALM 29.97S  
BLAKELY CLEAR 54 46 76 W3 29.95F  
ALBANY CLEAR 53 45 74 SW3 29.96S  
TIFTON NOT AVBL  
FITZGERALD FAIR 57 47 69 SW3 29.95R  
CORDELE FAIR 55 46 70 W7 29.95S  
AMERICUS FAIR 54 48 80 SW5 29.93S  
HOMERVILLE FAIR 54 46 74 SW5 29.96S  

 
 
!GMZ750-755-770-775-280600   
..COASTAL AND BUOY OBS
 
 
 
STATION/POSITION TIME TEMP WIND PRES VSBY WAVE  
AIR SEA DIR/SP/G HT/PER  
(UTC) (F) (DEG/KT/KT) (MB) (MI) (FT/S)  
KEATON BEACH 0500 65 270/ 7/ 8 1015.6R  
CEDAR KEY 0500 66 270/ 3/ 5 1016.0F  
C TOWER 0500 70 1015.4F  
APALACHICOLA BUO 0450 72 75 260/ 4/ 6 1014.7S 5/ 7  
PANAMA CITY BUOY 0450 73 230/ 8/ 10 1016.3S 5/ 6  
MOBILE BUOY 0500 73 240/ 14/ 16 1015.6  
ORANGE BCH AL BU 0450 70 69 240/ 16/ 19 1014.5R 3/ 7  

 
 
 
CLICK HERE TO GO TO PREVIOUS BULLETINS.

The Nexlab FL Page
The Nexlab GA Page
The Nexlab AL Page Main Text Page